| time (UTC) | temp F | wind direction | speed knots | gust knots | rain 1hr in | rain 24hr in | rain mn in | humidity % | barometer mb |
| 20260504194623 | 59 | 186 | 4.3 | 9.6 | 0.00 | 0.00 | 0.00 | 71 | 1011.1 |
| 20260504194117 | 59 | 201 | 4.3 | 9.6 | 0.00 | 0.00 | 0.00 | 71 | 1011.2 |
| 20260504193617 | 59 | 140 | 5.2 | 13.0 | 0.00 | 0.00 | 0.00 | 71 | 1011.3 |
| 20260504193116 | 59 | 143 | 5.2 | 13.0 | 0.00 | 0.00 | 0.00 | 71 | 1011.3 |
| 20260504192616 | 59 | 160 | 5.2 | 11.3 | 0.00 | 0.00 | 0.00 | 70 | 1011.3 |
| 20260504192349 | 59 | 156 | 4.3 | 13.0 | 0.00 | 0.00 | 0.00 | 69 | 1011.4 |
| 20260504191617 | 59 | 169 | 4.3 | 13.0 | 0.00 | 0.00 | 0.00 | 69 | 1011.4 |
| 20260504191116 | 60 | 165 | 5.2 | 13.0 | 0.00 | 0.00 | 0.00 | 69 | 1011.5 |
| 20260504190615 | 59 | 210 | 5.2 | 10.4 | 0.00 | 0.00 | 0.00 | 69 | 1011.5 |
| 20260504190116 | 59 | 174 | 4.3 | 14.8 | 0.00 | 0.00 | 0.00 | 69 | 1011.6 |
| 20260504185616 | 60 | 186 | 4.3 | 14.8 | 0.00 | 0.00 | 0.00 | 68 | 1011.6 |
| 20260504185349 | 60 | 164 | 4.3 | 13.9 | 0.00 | 0.00 | 0.00 | 68 | 1011.7 |
| 20260504184617 | 60 | 181 | 4.3 | 12.2 | 0.00 | 0.00 | 0.00 | 67 | 1011.8 |
| 20260504184117 | 60 | 188 | 3.5 | 12.2 | 0.00 | 0.00 | 0.00 | 67 | 1011.9 |
| 20260504183617 | 60 | 185 | 4.3 | 11.3 | 0.00 | 0.00 | 0.00 | 68 | 1012.0 |
| 20260504183112 | 60 | 185 | 4.3 | 11.3 | 0.00 | 0.00 | 0.00 | 68 | 1012.0 |
| 20260504182844 | 60 | 170 | 4.3 | 10.4 | 0.00 | 0.00 | 0.00 | 68 | 1012.0 |
| 20260504182114 | 60 | 161 | 5.2 | 13.0 | 0.00 | 0.00 | 0.00 | 68 | 1012.1 |
| 20260504181612 | 60 | 168 | 4.3 | 13.0 | 0.00 | 0.00 | 0.00 | 68 | 1012.1 |
| 20260504181112 | 60 | 272 | 4.3 | 12.2 | 0.00 | 0.00 | 0.00 | 68 | 1012.1 |
| 20260504180613 | 60 | 218 | 4.3 | 12.2 | 0.00 | 0.00 | 0.00 | 68 | 1012.3 |
| 20260504180113 | 60 | 207 | 4.3 | 11.3 | 0.00 | 0.00 | 0.00 | 68 | 1012.4 |
| 20260504175612 | 60 | 158 | 4.3 | 10.4 | 0.00 | 0.00 | 0.00 | 68 | 1012.4 |
| 20260504175114 | 60 | 200 | 4.3 | 12.2 | 0.00 | 0.00 | 0.00 | 69 | 1012.5 |
| 20260504174607 | 60 | 188 | 4.3 | 12.2 | 0.00 | 0.00 | 0.00 | 69 | 1012.5 |
| 20260504174107 | 60 | 175 | 4.3 | 10.4 | 0.00 | 0.00 | 0.00 | 69 | 1012.5 |
| 20260504173609 | 60 | 170 | 4.3 | 10.4 | 0.00 | 0.00 | 0.00 | 69 | 1012.5 |
| 20260504173107 | 60 | 162 | 4.3 | 11.3 | 0.00 | 0.00 | 0.00 | 69 | 1012.6 |
| 20260504172608 | 60 | 230 | 4.3 | 12.2 | 0.00 | 0.00 | 0.00 | 69 | 1012.7 |
| 20260504172108 | 60 | 233 | 4.3 | 13.9 | 0.00 | 0.00 | 0.00 | 69 | 1012.7 |
| 20260504171608 | 60 | 149 | 4.3 | 13.9 | 0.00 | 0.00 | 0.00 | 69 | 1012.7 |
| 20260504171108 | 60 | 174 | 3.5 | 9.6 | 0.00 | 0.00 | 0.00 | 69 | 1012.8 |
| 20260504170842 | 60 | 184 | 3.5 | 9.6 | 0.00 | 0.00 | 0.00 | 69 | 1012.9 |
| 20260504170104 | 60 | 156 | 4.3 | 9.6 | 0.00 | 0.00 | 0.00 | 69 | 1013.0 |
| 20260504151102 | 59 | 165 | 4.3 | 10.4 | 0.00 | 0.00 | 0.00 | 68 | 1013.8 |
| 20260504150556 | 59 | 315 | 5.2 | 10.4 | 0.00 | 0.00 | 0.00 | 69 | 1013.9 |
| 20260504141043 | 58 | 211 | 4.3 | 10.4 | 0.00 | 0.00 | 0.00 | 70 | 1014.2 |
| 20260504140543 | 58 | 198 | 4.3 | 9.6 | 0.00 | 0.00 | 0.00 | 70 | 1014.2 |
| 20260504140313 | 58 | 207 | 4.3 | 10.4 | 0.00 | 0.00 | 0.00 | 70 | 1014.3 |
| 20260504130503 | 58 | 280 | 5.2 | 13.9 | 0.00 | 0.00 | 0.00 | 63 | 1014.7 |
| 20260504110240 | 53 | 215 | 6.1 | 14.8 | 0.00 | 0.00 | 0.00 | 69 | 1015.4 |
| 20260504100128 | 51 | 237 | 4.3 | 10.4 | 0.00 | 0.00 | 0.00 | 67 | 1015.2 |
| 20260504090106 | 53 | 220 | 6.1 | 16.5 | 0.00 | 0.00 | 0.00 | 68 | 1015.1 |
| 20260504081606 | 53 | 229 | 7.0 | 12.2 | 0.00 | 0.00 | 0.00 | 67 | 1015.0 |
| 20260504081335 | 53 | 223 | 7.8 | 13.9 | 0.00 | 0.00 | 0.00 | 67 | 1015.0 |
| 20260504080606 | 53 | 205 | 7.8 | 13.9 | 0.00 | 0.00 | 0.00 | 66 | 1014.9 |
| 20260504080106 | 53 | 237 | 7.0 | 13.0 | 0.00 | 0.00 | 0.00 | 66 | 1014.9 |
| 20260504070108 | 53 | 227 | 7.0 | 13.0 | 0.00 | 0.00 | 0.00 | 62 | 1014.5 |
| 20260504050512 | 54 | 219 | 7.0 | 12.2 | 0.00 | 0.00 | 0.00 | 60 | 1014.3 |
| 20260504050241 | 54 | 238 | 6.1 | 11.3 | 0.00 | 0.00 | 0.00 | 60 | 1014.2 |
| 20260504045511 | 54 | 232 | 6.1 | 12.2 | 0.00 | 0.00 | 0.00 | 58 | 1014.2 |
| 20260504045013 | 54 | 227 | 7.0 | 15.6 | 0.00 | 0.00 | 0.00 | 56 | 1014.2 |
| 20260504044511 | 54 | 201 | 7.0 | 15.6 | 0.00 | 0.00 | 0.00 | 57 | 1014.2 |
| 20260504044012 | 54 | 230 | 7.0 | 12.2 | 0.00 | 0.00 | 0.00 | 57 | 1014.2 |
| 20260504043514 | 54 | 229 | 7.0 | 13.0 | 0.00 | 0.00 | 0.00 | 57 | 1014.2 |
| 20260504043011 | 54 | 222 | 6.1 | 13.0 | 0.00 | 0.00 | 0.00 | 56 | 1014.2 |
| 20260504042511 | 54 | 225 | 5.2 | 13.9 | 0.00 | 0.00 | 0.00 | 56 | 1014.2 |
| 20260504042012 | 54 | 221 | 4.3 | 13.9 | 0.00 | 0.00 | 0.00 | 56 | 1014.1 |
| 20260504041511 | 54 | 233 | 6.1 | 13.0 | 0.00 | 0.00 | 0.00 | 58 | 1014.1 |
| 20260504041019 | 54 | 233 | 4.3 | 10.4 | 0.00 | 0.00 | 0.00 | 54 | 1014.0 |
| 20260504041012 | 54 | 224 | 6.1 | 13.0 | 0.00 | 0.00 | 0.00 | 54 | 1014.1 |
| 20260504040011 | 54 | 232 | 4.3 | 9.6 | 0.00 | 0.00 | 0.00 | 56 | 1014.0 |
| 20260504035511 | 54 | 251 | 5.2 | 9.6 | 0.00 | 0.00 | 0.00 | 53 | 1013.8 |
| 20260504035012 | 54 | 248 | 6.1 | 9.6 | 0.00 | 0.00 | 0.00 | 52 | 1013.8 |
| 20260504034510 | 54 | 232 | 6.1 | 10.4 | 0.00 | 0.00 | 0.00 | 52 | 1013.7 |
| 20260504034009 | 54 | 252 | 6.1 | 10.4 | 0.00 | 0.00 | 0.00 | 52 | 1013.8 |
| 20260504033510 | 54 | 209 | 7.0 | 12.2 | 0.00 | 0.00 | 0.00 | 51 | 1013.7 |
| 20260504033009 | 54 | 229 | 7.8 | 13.0 | 0.00 | 0.00 | 0.00 | 51 | 1013.7 |
| 20260504032509 | 55 | 235 | 7.8 | 13.0 | 0.00 | 0.00 | 0.00 | 49 | 1013.7 |
| 20260504032008 | 55 | 206 | 7.8 | 13.9 | 0.00 | 0.00 | 0.00 | 48 | 1013.6 |
| 20260504031510 | 55 | 231 | 6.1 | 13.9 | 0.00 | 0.00 | 0.00 | 47 | 1013.7 |
| 20260504031010 | 55 | 183 | 5.2 | 9.6 | 0.00 | 0.00 | 0.00 | 50 | 1013.8 |
| 20260504030509 | 55 | 228 | 4.3 | 9.6 | 0.00 | 0.00 | 0.00 | 50 | 1013.6 |
| 20260504030004 | 55 | 247 | 5.2 | 11.3 | 0.00 | 0.00 | 0.00 | 50 | 1013.6 |
| 20260504025459 | 55 | 232 | 5.2 | 12.2 | 0.00 | 0.00 | 0.00 | 51 | 1013.7 |
| 20260504024952 | 55 | 233 | 5.2 | 13.0 | 0.00 | 0.00 | 0.00 | 51 | 1013.7 |
| 20260504024448 | 55 | 0 | 6.1 | 13.0 | 0.00 | 0.00 | 0.00 | 50 | 1013.7 |
| 20260504023948 | 55 | 221 | 5.2 | 11.3 | 0.00 | 0.00 | 0.00 | 49 | 1013.7 |
| 20260504023457 | 55 | 234 | 4.3 | 9.6 | 0.00 | 0.00 | 0.00 | 50 | 1013.7 |
| 20260504023447 | 55 | 238 | 4.3 | 9.6 | 0.00 | 0.00 | 0.00 | 49 | 1013.7 |
| 20260504022447 | 55 | 240 | 5.2 | 10.4 | 0.00 | 0.00 | 0.00 | 50 | 1013.6 |
| 20260504021947 | 55 | 229 | 4.3 | 10.4 | 0.00 | 0.00 | 0.00 | 48 | 1013.7 |
| 20260504021447 | 55 | 232 | 4.3 | 9.6 | 0.00 | 0.00 | 0.00 | 50 | 1013.7 |
| 20260504020948 | 55 | 216 | 3.5 | 7.8 | 0.00 | 0.00 | 0.00 | 51 | 1013.6 |
| 20260504020447 | 56 | 229 | 4.3 | 10.4 | 0.00 | 0.00 | 0.00 | 51 | 1013.6 |
| 20260504015949 | 56 | 225 | 5.2 | 10.4 | 0.00 | 0.00 | 0.00 | 49 | 1013.6 |
| 20260504015455 | 56 | 236 | 5.2 | 10.4 | 0.00 | 0.00 | 0.00 | 48 | 1013.5 |
| 20260504015448 | 56 | 226 | 5.2 | 10.4 | 0.00 | 0.00 | 0.00 | 48 | 1013.6 |
| 20260504014447 | 56 | 213 | 4.3 | 8.7 | 0.00 | 0.00 | 0.00 | 50 | 1013.5 |
| 20260504014220 | 56 | 234 | 4.3 | 8.7 | 0.00 | 0.00 | 0.00 | 51 | 1013.5 |
| 20260504013447 | 56 | 215 | 4.3 | 8.7 | 0.00 | 0.00 | 0.00 | 48 | 1013.5 |
| 20260504012948 | 56 | 188 | 5.2 | 8.7 | 0.00 | 0.00 | 0.00 | 50 | 1013.5 |
| 20260504012439 | 56 | 248 | 5.2 | 8.7 | 0.00 | 0.00 | 0.00 | 48 | 1013.4 |
| 20260504012209 | 56 | 247 | 5.2 | 10.4 | 0.00 | 0.00 | 0.00 | 47 | 1013.3 |
| 20260504011439 | 56 | 225 | 4.3 | 10.4 | 0.00 | 0.00 | 0.00 | 49 | 1013.2 |
| 20260504010945 | 56 | 233 | 3.5 | 8.7 | 0.00 | 0.00 | 0.00 | 49 | 1013.0 |
| 20260504010937 | 56 | 228 | 3.5 | 7.8 | 0.00 | 0.00 | 0.00 | 50 | 1013.1 |
| 20260504005938 | 56 | 229 | 5.2 | 11.3 | 0.00 | 0.00 | 0.00 | 45 | 1012.9 |
| 20260504005437 | 56 | 226 | 5.2 | 11.3 | 0.00 | 0.00 | 0.00 | 43 | 1012.9 |
| 20260504004937 | 57 | 228 | 4.3 | 8.7 | 0.00 | 0.00 | 0.00 | 44 | 1012.9 |
| 20260504004437 | 57 | 234 | 4.3 | 8.7 | 0.00 | 0.00 | 0.00 | 44 | 1012.8 |
| 20260504004210 | 57 | 239 | 3.5 | 8.7 | 0.00 | 0.00 | 0.00 | 44 | 1012.8 |
| 20260504003436 | 57 | 245 | 3.5 | 9.6 | 0.00 | 0.00 | 0.00 | 43 | 1012.8 |
| 20260504003207 | 57 | 229 | 4.3 | 9.6 | 0.00 | 0.00 | 0.00 | 41 | 1012.7 |
| 20260504002436 | 57 | 226 | 4.3 | 8.7 | 0.00 | 0.00 | 0.00 | 40 | 1012.6 |
| 20260504001937 | 57 | 229 | 4.3 | 9.6 | 0.00 | 0.00 | 0.00 | 41 | 1012.6 |
| 20260504001708 | 57 | 243 | 5.2 | 10.4 | 0.00 | 0.00 | 0.00 | 41 | 1012.6 |
| 20260504000931 | 57 | 231 | 5.2 | 10.4 | 0.00 | 0.00 | 0.00 | 41 | 1012.6 |
| 20260504000424 | 57 | 241 | 5.2 | 9.6 | 0.00 | 0.00 | 0.00 | 42 | 1012.5 |
| 20260503235918 | 57 | 224 | 4.3 | 9.6 | 0.00 | 0.00 | 0.00 | 43 | 1012.4 |
| 20260503235413 | 58 | 215 | 4.3 | 8.7 | 0.00 | 0.00 | 0.00 | 42 | 1012.3 |
| 20260503234905 | 58 | 224 | 4.3 | 8.7 | 0.00 | 0.00 | 0.00 | 42 | 1012.3 |
| 20260503234400 | 58 | 220 | 4.3 | 10.4 | 0.00 | 0.00 | 0.00 | 42 | 1012.2 |
| 20260503233853 | 58 | 236 | 5.2 | 10.4 | 0.00 | 0.00 | 0.00 | 39 | 1012.2 |
| 20260503233618 | 58 | 200 | 5.2 | 9.6 | 0.00 | 0.00 | 0.00 | 37 | 1012.1 |
| 20260503232842 | 59 | 225 | 4.3 | 8.7 | 0.00 | 0.00 | 0.00 | 37 | 1012.0 |
| 20260503232335 | 59 | 239 | 4.3 | 8.7 | 0.00 | 0.00 | 0.00 | 36 | 1012.0 |
| 20260503231830 | 59 | 279 | 4.3 | 8.7 | 0.00 | 0.00 | 0.00 | 35 | 1012.0 |
| 20260503231323 | 59 | 286 | 5.2 | 10.4 | 0.00 | 0.00 | 0.00 | 34 | 1012.0 |
| 20260503230817 | 60 | 234 | 6.1 | 12.2 | 0.00 | 0.00 | 0.00 | 36 | 1012.0 |
| 20260503230542 | 60 | 255 | 6.1 | 13.0 | 0.00 | 0.00 | 0.00 | 33 | 1012.0 |
| 20260503225805 | 60 | 259 | 7.0 | 14.8 | 0.00 | 0.00 | 0.00 | 32 | 1012.0 |
| 20260503225300 | 60 | 275 | 7.0 | 14.8 | 0.00 | 0.00 | 0.00 | 33 | 1012.0 |
| 20260503224753 | 60 | 218 | 7.0 | 14.8 | 0.00 | 0.00 | 0.00 | 33 | 1012.0 |
| 20260503224247 | 60 | 265 | 7.0 | 14.8 | 0.00 | 0.00 | 0.00 | 31 | 1012.0 |
| 20260503223741 | 60 | 277 | 5.2 | 12.2 | 0.00 | 0.00 | 0.00 | 31 | 1011.9 |
| 20260503223236 | 60 | 278 | 6.1 | 11.3 | 0.00 | 0.00 | 0.00 | 31 | 1011.9 |
| 20260503222729 | 61 | 292 | 5.2 | 12.2 | 0.00 | 0.00 | 0.00 | 31 | 1011.8 |
| 20260503222225 | 60 | 257 | 6.1 | 12.2 | 0.00 | 0.00 | 0.00 | 30 | 1011.7 |
| 20260503221949 | 60 | 278 | 7.0 | 19.1 | 0.00 | 0.00 | 0.00 | 31 | 1011.8 |
| 20260503221211 | 60 | 229 | 8.7 | 19.1 | 0.00 | 0.00 | 0.00 | 30 | 1011.7 |
| 20260503220706 | 60 | 266 | 9.6 | 17.4 | 0.00 | 0.00 | 0.00 | 31 | 1011.7 |
| 20260503220200 | 60 | 236 | 8.7 | 16.5 | 0.00 | 0.00 | 0.00 | 30 | 1011.6 |
| 20260503215926 | 60 | 289 | 7.0 | 14.8 | 0.00 | 0.00 | 0.00 | 30 | 1011.7 |
| 20260503215147 | 61 | 281 | 7.0 | 16.5 | 0.00 | 0.00 | 0.00 | 30 | 1011.5 |
| 20260503214641 | 61 | 307 | 6.1 | 16.5 | 0.00 | 0.00 | 0.00 | 30 | 1011.6 |
| 20260503214136 | 61 | 292 | 7.0 | 14.8 | 0.00 | 0.00 | 0.00 | 29 | 1011.5 |
| 20260503213901 | 60 | 299 | 8.7 | 16.5 | 0.00 | 0.00 | 0.00 | 29 | 1011.4 |
| 20260503213124 | 61 | 274 | 7.0 | 16.5 | 0.00 | 0.00 | 0.00 | 29 | 1011.5 |
| 20260503212617 | 61 | 306 | 7.0 | 15.6 | 0.00 | 0.00 | 0.00 | 29 | 1011.3 |
| 20260503212341 | 61 | 294 | 8.7 | 17.4 | 0.00 | 0.00 | 0.00 | 31 | 1011.4 |
| 20260503211605 | 60 | 250 | 8.7 | 17.4 | 0.00 | 0.00 | 0.00 | 31 | 1011.4 |
| 20260503211100 | 61 | 254 | 7.0 | 16.5 | 0.00 | 0.00 | 0.00 | 29 | 1011.4 |
| 20260503210826 | 61 | 278 | 7.8 | 18.2 | 0.00 | 0.00 | 0.00 | 30 | 1011.4 |
| 20260503210047 | 60 | 271 | 7.8 | 18.2 | 0.00 | 0.00 | 0.00 | 30 | 1011.4 |
| 20260503205813 | 60 | 263 | 8.7 | 20.9 | 0.00 | 0.00 | 0.00 | 31 | 1011.4 |
| 20260503205037 | 60 | 284 | 7.8 | 18.2 | 0.00 | 0.00 | 0.00 | 29 | 1011.4 |
| 20260503204529 | 60 | 227 | 7.8 | 17.4 | 0.00 | 0.00 | 0.00 | 31 | 1011.4 |
| 20260503204024 | 60 | 260 | 8.7 | 20.9 | 0.00 | 0.00 | 0.00 | 30 | 1011.3 |
| 20260503203517 | 60 | 305 | 7.8 | 20.9 | 0.00 | 0.00 | 0.00 | 31 | 1011.4 |
| 20260503203012 | 61 | 243 | 6.1 | 15.6 | 0.00 | 0.00 | 0.00 | 30 | 1011.3 |
| 20260503202504 | 60 | 303 | 6.1 | 12.2 | 0.00 | 0.00 | 0.00 | 32 | 1011.2 |
| 20260503201959 | 60 | 35 | 6.1 | 12.2 | 0.00 | 0.00 | 0.00 | 31 | 1011.3 |
| 20260503201453 | 60 | 275 | 6.1 | 13.9 | 0.00 | 0.00 | 0.00 | 30 | 1011.3 |
| 20260503200947 | 59 | 242 | 8.7 | 18.2 | 0.00 | 0.00 | 0.00 | 30 | 1011.4 |
| 20260503200444 | 59 | 254 | 9.6 | 18.2 | 0.00 | 0.00 | 0.00 | 30 | 1011.4 |
| 20260503200439 | 59 | 284 | 7.8 | 15.6 | 0.00 | 0.00 | 0.00 | 31 | 1011.4 |
| 20260503195429 | 60 | 245 | 7.0 | 17.4 | 0.00 | 0.00 | 0.00 | 31 | 1011.4 |